Regional Weather Roundup
Issued by NWS

Home | Current Version | Previous Version | Graphics & Text | Print | Product List | Glossary On
Versions: 1 2 3 4 5 6 7 8 9 10 11 12 13 14 15 16 17 18 19 20 21 22 23 24 25 26 27
000
ASUS45 KCYS 251710
RWRWY

WYOMING REGIONAL WEATHER ROUNDUP
NATIONAL WEATHER SERVICE CHEYENNE WY
1100 AM MDT WED MAY 25 2016

NOTE:  "FAIR" INDICATES FEW OR NO CLOUDS BELOW 12,000 FEET
WITH NO SIGNIFICANT WEATHER AND/OR OBSTRUCTIONS TO VISIBILITY.

WYZ001-251800-
YELLOWSTONE NATIONAL PARK

CITY           SKY/WX    TMP DP  RH WIND       PRES   REMARKS
LK YELLOWSTONE   N/A     37  34  89 NW3       30.07R
W YELLOWSTONE  NOT AVBL

$$
WYZ002>013-054>058-071-098>099-251800-
NORTHERN WYOMING

CITY           SKY/WX    TMP DP  RH WIND       PRES   REMARKS
JACKSON        PTSUNNY   46  43  87 SW12      30.04S
CODY           CLOUDY    48  45  87 N7        29.95R
GREYBULL       FAIR      58  47  66 CALM      29.91F
WORLAND        FAIR      57  45  64 SW5       29.92F
SHERIDAN       CLOUDY    58  44  60 CALM      29.91F
BUFFALO        FAIR      54  42  64 MISG      29.95S
GILLETTE       PTSUNNY   54  45  71 W7        29.93R
HULETT         CLOUDY    52  45  76 W8G16     29.93R
NEWCASTLE      PTSUNNY   55  43  62 W7        29.93S

$$
WYZ014>020-022>026-101>103-251800-
CENTRAL WYOMING

CITY           SKY/WX    TMP DP  RH WIND       PRES   REMARKS
BIG PINEY      HVY RAIN  40  35  83 W6G17     30.06R
PINEDALE       PTSUNNY   45  37  76 S6        30.06S
DUBOIS         PTSUNNY   46  36  66 W15       30.01R
LANDER         FAIR      59  38  45 E6        29.94S
RIVERTON       FAIR      58  41  53 NE5       29.96S
CASPER         PTSUNNY   62  34  35 W25G33    29.94S
DOUGLAS          N/A    N/A N/A N/A MISG      29.94S

$$
WYZ021-027>030-104>119-251800-
SOUTHERN WYOMING

CITY           SKY/WX    TMP DP  RH WIND       PRES   REMARKS
EVANSTON       PTSUNNY   51  35  54 W17G26    30.08S
KEMMERER         N/A     46  36  66 W14G22    30.09R
FORT BRIDGER   MOSUNNY   54  37  54 W16G23    30.11R
ROCK SPRINGS   FAIR      54  31  41 W17G23    30.06S
DIXON          PTSUNNY   57  30  35 W18       30.09S
RAWLINS        PTSUNNY   56  31  38 SW21G29   30.05S
SARATOGA       PTSUNNY   54  30  40 SW17G25   30.08R
LARAMIE        CLOUDY    57  21  24 W25G35    30.03S
CHEYENNE       PTSUNNY   61  31  32 SW17G23   30.01S
TORRINGTON     FAIR      69  37  30 W14G26    29.93S
PINE BLUFFS    FAIR      64  41  42 SW12      30.00R

$$




USA.gov is the U.S. government's official web portal to all federal, state and local government web resources and services.